Regional Weather Roundup
Issued by NWS Wakefield, VA

Home | Current Version | Previous Version | Text Only | Print | Product List | Glossary Off
Versions: 1 2 3 4 5 6 7 8 9 10 11 12 13 14 15 16 17 18 19 20 21 22 23 24 25 26 27 28 29 30 31 32 33 34 35 36 37 38 39 40 41 42 43 44 45 46 47 48 49 50

000
ASUS41 KAKQ 230310
RWRAKQ

REGIONAL WEATHER ROUNDUP
NATIONAL WEATHER SERVICE WAKEFIELD VA
1000 PM EST SAT NOV 22 2014

Note: "fair" indicates few or no clouds below 12,000 feet with no
significant weather and/or obstructions to visibility. * = Denotes
station may not report precipitation (e.g., rain,snow,etc.),
thunder or fog.

VAZ042-051-052>054-056-230400-
NORTHERN VIRGINIA

CITY           SKY/WX    TMP DP  RH WIND       PRES   REMARKS
WASH NATIONAL  CLOUDY    44  23  43 S8        30.29S
DULLES         CLOUDY    42  17  36 S10       30.25F
FORT BELVOIR   CLOUDY    43  23  45 VRB5      30.29S
QUANTICO       MOCLDY    43  22  43 SW6       30.32R
FREDERICKSBRG* CLEAR     41  19  42 S5        30.30S
STAFFORD*      MOCLDY    39  14  35 CALM      30.35R
WARRENTON      CLOUDY    44  24  45 S12       30.26S
CULPEPER*      MOCLDY    45  18  33 S8        30.28S
MANASSAS*      CLOUDY    43  18  36 S8        30.27S
LEESBURG*      CLOUDY    43  23  45 S7        30.25S
WINCHESTER     PTCLDY    45  14  29 SW6       30.21R
FRONT ROYAL*   CLOUDY    46  19  34 SW6       30.20S
LURAY*         MOCLDY    45  23  42 SW12      30.24S
$$

VAZ048-049-060>072-079>083-230400-
CENTRAL AND SOUTH CENTRAL VIRGINIA

CITY           SKY/WX    TMP DP  RH WIND       PRES   REMARKS
RICHMOND       PTCLDY    32  19  58 S5        30.33S
CHESTERFIELD*  CLEAR     28  10  47 S5        30.34F
PETERSBURG*    CLEAR     28  22  80 S3        30.36S
HANOVER        CLEAR     38  18  44 S7        30.34S
TAPPAHANNOCK*  CLEAR     39  12  32 S5        30.33S
QUINTON*       FAIR      31  24  75 S7        30.35S
CHARLOTTSVILLE CLEAR     39  18  42 SW6       30.28S
GORDONSVILLE*  PTCLDY    37  19  48 CALM      30.29S
ORANGE*        CLOUDY    41  19  42 S7        30.30F
LOUISA*        CLEAR     39  18  41 SW3       30.28S
BUMPASS*       FAIR      37  18  46 SW3       30.30S
FARMVILLE*     CLEAR     31  20  63 SW3       30.32S
CREWE*         CLEAR     32  20  61 CALM      30.33F
FORT PICKETT*  CLEAR     32  19  59 SW7       30.34F
LUNENBURG*     CLEAR     37  19  48 S3        30.34S
CHASE CITY*    FAIR      34  23  65 CALM      30.34F
CLARKSVILLE*   FAIR      32  23  69 CALM      30.34S
SOUTH HILL*    CLEAR     31  22  68 CALM      30.41S
LAWRENCEVILLE* CLEAR     36  20  51 CALM      30.35F
$$

VAZ088>098-230400-
SOUTHEAST VIRGINIA

CITY           SKY/WX    TMP DP  RH WIND       PRES   REMARKS
NORFOLK        CLEAR     36  26  67 SW7       30.36S
VIRGINIA BEACH CLEAR     37  28  70 CALM      30.36S
NORFOLK NAVAL  CLEAR     44  26  49 S6        30.38R
WEST POINT*    CLEAR     31  22  70 S5        30.37S
SALUDA*        FAIR      36  21  55 SW5       30.34S
NEWPORT NEWS   CLEAR     36  24  62 CALM      30.36S
LANGLEY AFB    CLEAR     40  26  56 S6        30.37R
FORT EUSTIS    CLEAR     33  25  75 SE1       30.34S
WILLIAMSBURG*  CLEAR     37  27  65 S5        30.37S
HR EXEC AP*    CLEAR     37  32  81 S7        30.39S
FRANKLIN*      CLEAR     28  25  86 CALM      30.37S
WAKEFIELD      CLEAR     30  22  72 CALM      30.36S
$$

VAZ020-022-025-037-045-230400-
WEST CENTRAL AND SOUTHWEST VIRGINIA

CITY           SKY/WX    TMP DP  RH WIND       PRES   REMARKS
STAUNTON*      PTCLDY    38  17  43 CALM      30.28S
WAYNESBORO*    CLEAR     34  17  51 CALM      30.25F
HOT SPRINGS VA CLEAR     42  10  26 SW12      30.19F
LYNCHBURG      CLEAR     29  19  66 CALM      30.33S
DANVILLE       CLEAR     30  19  63 S3        30.35S
SOUTH BOSTON*  CLEAR     30  20  66 CALM      30.34F
MARTINSVILLE   PTCLDY    28  22  76 CALM      30.35F
ROANOKE        CLEAR     35  19  52 CALM      30.32F
BLACKSBURG     CLEAR     30  21  69 CALM      30.29F
DUBLIN*        CLEAR     37  21  53 CALM      30.28F
MARION*        PTCLDY    35  20  53 CALM      30.27F
HILLSVILLE*    PTCLDY    38  18  45 S12G17    30.26F
RICHLANDS*     PTCLDY    49  17  28 SE6       30.19F
WISE*          CLEAR     48  19  32 S9        30.20S
ABINGDON*      PTCLDY    40  23  49 CALM      30.23S
$$

MDZ021>025-VAZ099-100-230400-
SOUTHERN MARYLAND AND THE DELMARVA PENINSULA

CITY           SKY/WX    TMP DP  RH WIND       PRES   REMARKS
PATUXENT RIVER CLEAR     41  18  39 SW5       30.31S
BAY BRIDGE APT   N/A     45  21  39 S10G17    30.29S
LEONARDTOWN    CLEAR     41  19  42 SW7       30.32S
DOVER          CLOUDY    38  26  64 S7        30.27S
GEORGETOWN     CLEAR     36  25  64 SW8       30.31F
EASTON         CLEAR     39  27  61 SW7       30.33
CAMBRIDGE      CLEAR     41  27  56 S3        30.30F
SALISBURY      CLEAR     35  25  66 S6        30.32F
OCEAN CITY     CLEAR     39  26  59 SW7       30.33S
WALLOPS ISLAND CLEAR     42  24  49 SW12      30.34S
ACCOMACK*      CLEAR     34  27  75 SW7       30.35S
$$

NCZ012>017-030>032-230400-
NORTH CENTRAL AND EASTERN NORTH CAROLINA

CITY           SKY/WX    TMP DP  RH WIND       PRES   REMARKS
ROANOKE RAPIDS CLEAR     30  27  86 SW3       30.35F
RALEIGH        PTCLDY    37  20  50 CALM      30.35F
ELIZABETH CITY CLEAR     41  34  76 CALM      30.38S
AHOSKIE*       CLEAR     28  24  84 CALM      30.37F
EDENTON*         N/A     39  34  82 S7        30.38F
CURRITUCK*     CLEAR     37  33  86 CALM      30.38S
KILL DEVIL HLS CLEAR     44  39  82 SW3       30.37F
MANTEO         CLEAR     38  37  96 CALM      30.39S
CAPE HATTERAS  CLEAR     45  42  89 N6        30.39R
TARBORO*       CLEAR     29  27  90 CALM      30.38F
GOLDSBORO      CLEAR     37  31  81 CALM      30.35F
WASHINGTON     PTCLDY    35  30  82 CALM      30.38F
GREENVILLE     CLEAR     36  28  75 CALM      30.38F
NEW BERN       PTCLDY    40  35  83 CALM      30.38F
WILMINGTON     PTCLDY    42  40  92 NE3       30.35F
$$

VAZ048-230400-
ELSEWHERE

CITY           SKY/WX    TMP DP  RH WIND       PRES   REMARKS
HARRISBURG PA  MOCLDY    33  25  72 CALM      30.20F
BALTIMORE      CLOUDY    42  17  36 SW5       30.25F
ANNAPOLIS      MOCLDY    43  19  38 S6        30.28F
ANDREWS AFB    CLOUDY    42  18  39 SW10      30.27F
PHILADELPHIA   MOCLDY    42  24  49 S9        30.27F
WILDWOOD NJ*   CLEAR     41  23  48 SW10      30.29F
HENDERSON NC   CLEAR     40  12  31 SW5       30.34F
GREENSBORO     PTCLDY    38  20  48 CALM      30.33S
ROCKY MOUNT    CLEAR     32  25  75 CALM      30.37F
$$

VAZ100-230400-
MARINE

STATION/POSITION TIME  TEMP    WIND        PRES    WAVE   SWELL
                       AIR SEA DIR/SP/G            HT/PER HT/PER
                 (UTC) (F)     (DEG/KT/KT) (MB)    (FT/S) (FT/S)
CAPE MAY NJ      0300   44 47  210/ 10/ 13 1025.8F
LEWES DE         0300   40 47  210/  6/ 10 1025.9F
15NM E FENWICK I 0300   50 54              1026.2R   4/ 5
OCEAN-CITY-INLET 0300   42 49  250/  6/  7 1026.6F
WACHAPREAGUE VA  0300   40 42  260/  3/  4 1027.7R
THOMAS POINT MD  0300   45 47  200/ 16/ 17 1026.9S
GOOSES REEF MD   0300   45 48  220/ 14/ 16 1026.6R   1/ 3
COVE POINT MD    0300   43     220/ 10/ 12 1026.1S
SOLOMONS ISLAND  0300      48                N/A
BISHOPS HEAD MD  0300   45 39  210/ 15/ 16   N/A
PINEY POINT MD   0300          240/  7/  9   N/A
POTOMAC MD       0300   45 48  230/ 12/ 16 1026.2R   2/ 3
CAMBRIDGE MD     0300   41 42  190/  3/  5 1026.0R
LEWISETTA VA     0300   42 42  220/ 10/ 12 1026.5S
RAPPAHANNOCK LGT 0300          200/ 16/ 17 1028.0R
STINGRAY PT      0300   44 48  200/  8/ 10 1028.1R   1
YORK RVR RNG VA  0300   46     220/  9/ 11 1027.6R
YORKTOWN VA      0300   43 50  200/  6/  8 1027.7R
JAMESTOWN VA     0300   42 47  140/  2/  4   N/A     0
DOMINION TERM VA 0300   45     190/  5/  6 1028.3R
KIPTOPEKE VA     0300      52  200/ 12/ 13   N/A
CHES BAY BRIDGE  0300   44 51  170/  6/  8 1027.8R
CAPE HENRY VA    0300   42     180/  6/  9 1026.9S
CHESAPEAKE LGHT  0200   51     200/ 17/ 18 1028.3F
WILLOUBY STN VA  0300   45     210/  8/  9 1026.8R
S CRANEY ISL VA  0300          170/  5/  6 1028.0S
CAPE HENRY BUOY  0200      54                N/A     2/ 3
1ST LANDING BUOY 0300   45 52  190/ 10/ 12 1027.7S   1/ 3
CAPE CHARLES BUO 0300      54                N/A     2/ 3   2/ 8
64NM E OF VA BCH 0300   56 60  220/ 14/ 16 1028.0R   2/ 8   2/ 8
DUCK PIER NC     0300   47 54  200/  7/  9 1027.8F
44100 DUCK FRF   0300      57                N/A     2/ 9
44056 DUCK FRF   0300      56                N/A     2/ 9
OREGON INLET NC  0300   47 51  230/  1/  2 1028.9R
HATTERAS NC      0300   48 51   10/  3/  3 1029.2R
DIAMOND SHLS NC  0300   63     210/ 10/ 14 1029.0R   3/ 8   2/ 8



USA.gov is the U.S. government's official web portal to all federal, state and local government web resources and services.